Probability
0 0 0 0 0 0 0 0 0 0 0 6 6 3 10 19 19 32 29 29 35 39 42 45 52 45 48 61 68 74 65 68 68 58 52 48 48 48 45 48 45 45 45 45
0 0 0 0 0 0 0 0 0 3 3 3 3 3 6 13 19 26 29 35 35 29 32 39 42 45 45 58 65 71 68 68 65 68 65 55 52 48 48 55 55 45 42 39
0 0 0 0 0 0 0 0 0 3 3 3 3 6 3 6 6 13 19 23 29 26 35 39 39 35 45 52 58 58 65 65 61 68 65 55 55 52 48 52 45 42 48 45
0 0 0 0 0 0 0 0 0 3 3 6 6 3 6 13 6 10 13 19 23 26 26 39 39 35 39 42 52 61 61 61 68 68 55 55 52 48 45 45 42 42 45 39
0 0 0 0 0 0 0 0 0 0 0 3 3 3 3 10 13 16 19 26 23 26 26 29 35 26 32 29 39 48 55 52 68 61 61 52 48 42 39 39 42 42 42 42
0 0 0 0 0 0 0 0 0 0 0 0 0 0 3 6 6 16 26 26 29 26 29 32 26 32 32 32 32 48 48 52 45 48 48 48 42 39 39 39 35 35 35 35
0 0 0 0 0 0 0 0 0 0 0 0 0 0 3 3 10 23 26 29 29 26 29 26 29 32 39 35 39 42 45 48 42 45 45 42 45 42 39 39 35 32 29 29
0 0 0 0 0 0 0 0 0 0 0 0 0 0 3 10 13 19 23 16 23 29 26 26 29 29 39 39 35 39 42 45 45 42 39 39 42 39 35 35 32 32 32 32
0 0 0 0 0 0 0 0 0 0 0 0 0 0 10 10 19 16 19 16 16 19 19 23 26 26 26 29 35 35 42 42 45 39 35 35 35 32 32 35 32 32 32 35
0 0 0 0 0 0 0 0 0 0 0 0 0 0 0 13 19 16 16 16 16 16 19 16 19 19 23 29 35 32 39 35 35 39 32 29 35 32 35 32 35 29 29 32
0 0 0 0 0 0 0 0 0 0 0 0 0 0 3 13 10 19 19 6 6 13 13 10 13 19 19 23 32 35 35 35 35 35 42 35 32 35 35 32 32 32 35 35
0 0 0 0 0 0 0 0 0 0 0 0 0 0 3 10 13 16 13 6 10 10 13 10 10 13 16 16 23 29 35 39 39 39 39 39 32 26 23 26 32 35 35 32
0 0 0 0 0 0 0 0 0 0 0 0 0 3 3 13 19 16 10 13 10 13 10 10 13 13 13 13 19 26 29 32 29 29 29 29 29 23 16 23 23 32 29 29
0 0 0 0 0 0 0 0 0 0 0 0 0 0 3 6 19 16 19 16 13 10 10 13 13 13 10 10 10 10 19 26 26 29 26 26 23 26 19 19 19 26 29 23
0 0 0 0 0 0 0 0 0 0 0 0 0 0 3 10 13 16 16 13 13 6 3 6 10 10 10 10 10 10 16 16 19 16 19 16 19 13 13 13 16 16 23 26
0 0 0 0 0 0 0 0 0 0 0 0 0 0 3 3 10 6 6 6 6 3 6 6 10 10 13 13 13 13 19 19 16 16 16 13 19 16 13 13 13 16 16 16
0 0 0 0 0 0 0 0 0 0 3 3 3 3 3 0 3 3 3 10 10 6 3 6 6 10 10 13 13 16 16 13 13 16 13 16 16 16 16 13 13 13 16 16
0 0 0 0 0 0 0 0 0 0 0 0 3 0 3 3 3 3 6 6 6 10 6 6 6 6 10 10 16 16 13 13 13 13 13 16 16 13 13 13 13 13 16 16
0 0 0 0 0 0 0 0 0 0 0 0 0 0 0 3 3 3 6 6 6 6 10 13 6 6 13 13 13 13 13 13 13 13 13 16 16 13 13 13 13 13 13 16
0 6 0 0 0 0 0 0 0 0 6 0 0 0 0 3 6 3 6 6 6 6 13 13 10 10 10 13 16 16 16 13 13 13 13 13 16 16 13 13 13 13 13 13
0 0 0 0 0 3 0 0 0 0 3 0 0 0 0 3 6 6 6 0 0 3 3 3 6 3 6 6 13 13 13 13 16 16 16 13 16 16 16 16 13 13 13 13
0 0 0 0 0 0 0 0 0 3 3 0 0 0 3 3 3 3 0 0 0 0 0 0 0 3 3 3 13 13 13 13 10 13 13 16 19 16 13 16 13 13 13 13
0 3 3 3 3 6 6 6 3 3 0 0 0 0 3 3 3 0 0 0 0 0 0 0 0 0 0 3 3 6 6 6 3 6 10 10 19 16 13 13 13 13 13 10
0 3 0 0 0 3 3 0 0 0 0 0 0 0 0 0 0 0 0 0 0 0 0 0 0 0 3 3 3 3 3 3 3 6 6 6 10 13 10 10 10 10 6 10
3 0 0 0 0 0 0 0 0 0 0 0 0 0 0 0 0 0 0 0 0 0 3 3 3 3 3 3 3 3 3 3 3 6 6 6 10 10 10 10 10 6 6 3
0 0 0 0 0 0 0 0 0 0 0 0 0 0 0 0 0 0 0 0 3 0 3 3 3 6 6 3 3 3 3 3 6 6 6 10 10 10 10 10 10 0 0 0
Height
5872 5875 5877 5879 5880 5882 5884 5886 5887 5888 5888 5889 5890 5891 5892 5892 5893 5893 5894 5894 5893 5893 5892 5891 5890 5889 5888 5887 5885 5884 5883 5882 5881 5880 5879 5878 5877 5876 5875 5874 5873 5872 5872 5871
5869 5871 5873 5874 5876 5878 5880 5882 5883 5884 5884 5885 5886 5887 5888 5888 5889 5889 5890 5890 5889 5889 5888 5887 5886 5885 5884 5883 5882 5881 5879 5878 5877 5876 5875 5874 5873 5872 5872 5871 5870 5869 5869 5868
5865 5868 5869 5871 5872 5874 5876 5878 5879 5880 5880 5881 5883 5884 5884 5884 5884 5884 5885 5885 5885 5885 5884 5883 5882 5881 5880 5879 5878 5877 5876 5875 5874 5872 5871 5870 5869 5868 5868 5867 5866 5866 5865 5865
5861 5863 5865 5866 5868 5870 5872 5873 5875 5875 5877 5878 5879 5881 5879 5879 5879 5880 5880 5880 5880 5879 5879 5878 5877 5876 5875 5874 5873 5872 5872 5871 5869 5868 5867 5866 5865 5864 5863 5862 5862 5861 5861 5860
5857 5859 5861 5862 5864 5866 5867 5869 5870 5871 5872 5874 5874 5876 5876 5874 5874 5875 5875 5875 5874 5874 5873 5872 5871 5871 5870 5869 5868 5868 5867 5866 5865 5864 5863 5862 5861 5860 5858 5857 5856 5856 5855 5855
5853 5854 5856 5858 5859 5861 5862 5864 5865 5866 5868 5869 5870 5871 5871 5869 5869 5869 5869 5868 5868 5868 5867 5866 5865 5865 5864 5863 5863 5862 5862 5861 5860 5859 5858 5857 5856 5854 5853 5852 5851 5850 5850 5849
5849 5850 5851 5853 5855 5857 5859 5861 5863 5864 5865 5866 5864 5865 5866 5864 5863 5863 5863 5862 5862 5862 5861 5860 5859 5858 5858 5857 5856 5856 5856 5855 5854 5853 5852 5851 5850 5849 5847 5846 5845 5844 5844 5844
5846 5847 5848 5849 5851 5853 5854 5857 5860 5861 5862 5862 5858 5859 5860 5858 5858 5858 5857 5857 5856 5856 5855 5854 5853 5852 5851 5850 5850 5849 5849 5848 5848 5847 5846 5845 5844 5843 5841 5840 5839 5839 5839 5838
5842 5843 5843 5845 5846 5848 5849 5851 5853 5854 5855 5856 5855 5853 5853 5852 5852 5852 5851 5851 5850 5849 5848 5847 5846 5845 5844 5843 5842 5842 5842 5841 5841 5840 5840 5839 5837 5836 5836 5834 5834 5833 5833 5833
5837 5838 5839 5840 5842 5843 5845 5846 5847 5848 5849 5850 5850 5848 5848 5847 5847 5846 5845 5844 5843 5842 5841 5840 5839 5838 5836 5835 5835 5834 5834 5834 5833 5833 5832 5832 5831 5830 5829 5829 5828 5828 5827 5826
5832 5834 5835 5836 5837 5838 5840 5841 5841 5842 5843 5844 5845 5846 5842 5841 5840 5840 5839 5838 5837 5835 5834 5832 5831 5829 5828 5827 5826 5826 5826 5825 5825 5825 5824 5824 5824 5823 5823 5822 5822 5821 5820 5820
5828 5830 5831 5832 5832 5833 5834 5835 5836 5837 5837 5837 5838 5839 5835 5834 5833 5833 5832 5831 5829 5828 5826 5824 5822 5820 5819 5818 5817 5817 5817 5817 5816 5816 5816 5816 5816 5815 5815 5815 5814 5814 5813 5813
5823 5825 5826 5827 5829 5829 5828 5829 5830 5830 5830 5830 5831 5833 5828 5827 5826 5826 5824 5823 5822 5820 5818 5815 5813 5811 5810 5809 5808 5808 5808 5808 5808 5808 5808 5808 5808 5807 5807 5807 5806 5806 5806 5805
5818 5820 5822 5824 5823 5822 5822 5823 5824 5824 5825 5824 5824 5823 5822 5820 5819 5818 5817 5815 5814 5812 5809 5807 5805 5803 5802 5800 5799 5799 5799 5799 5799 5799 5799 5800 5800 5799 5799 5799 5798 5798 5798 5798
5813 5814 5815 5816 5816 5816 5816 5816 5817 5817 5817 5817 5817 5816 5815 5813 5812 5811 5809 5807 5805 5803 5801 5799 5797 5795 5793 5792 5791 5791 5790 5790 5790 5790 5791 5791 5791 5791 5791 5790 5790 5790 5790 5789
5807 5809 5809 5810 5810 5810 5810 5810 5810 5810 5810 5810 5809 5809 5807 5806 5804 5803 5801 5799 5797 5795 5793 5791 5789 5787 5786 5784 5783 5783 5782 5782 5781 5782 5782 5782 5782 5781 5781 5781 5781 5781 5781 5781
5802 5803 5804 5804 5804 5803 5804 5804 5804 5803 5803 5803 5802 5802 5800 5799 5797 5795 5793 5791 5789 5787 5785 5783 5781 5779 5778 5776 5775 5774 5774 5773 5773 5773 5772 5772 5772 5772 5772 5772 5772 5772 5772 5772
5796 5797 5797 5798 5798 5798 5799 5797 5797 5796 5796 5795 5794 5793 5792 5791 5789 5787 5785 5784 5782 5779 5777 5775 5773 5771 5770 5768 5767 5766 5765 5765 5764 5764 5763 5763 5763 5763 5763 5763 5763 5763 5763 5762
5790 5791 5791 5792 5791 5791 5792 5791 5790 5789 5789 5788 5786 5785 5784 5782 5781 5780 5778 5776 5774 5771 5769 5767 5765 5763 5762 5760 5759 5758 5757 5757 5756 5755 5755 5754 5754 5754 5753 5753 5754 5754 5754 5754
5783 5784 5786 5785 5785 5785 5785 5784 5783 5784 5782 5781 5779 5778 5777 5775 5774 5773 5770 5768 5766 5764 5762 5760 5757 5756 5754 5752 5751 5750 5749 5748 5748 5747 5746 5745 5745 5744 5744 5744 5744 5744 5744 5744
5777 5778 5779 5778 5778 5778 5778 5777 5777 5778 5776 5774 5772 5771 5770 5768 5767 5765 5762 5760 5758 5756 5754 5752 5750 5748 5747 5745 5743 5742 5741 5740 5739 5738 5737 5736 5735 5735 5735 5735 5735 5734 5734 5734
5771 5772 5772 5772 5772 5773 5771 5771 5771 5770 5768 5766 5765 5764 5763 5761 5759 5757 5755 5753 5750 5748 5746 5744 5742 5740 5738 5736 5735 5734 5733 5731 5730 5729 5728 5727 5726 5726 5726 5725 5725 5725 5725 5725
5765 5766 5765 5766 5767 5765 5764 5764 5763 5762 5761 5759 5758 5757 5755 5754 5752 5750 5747 5745 5743 5741 5739 5737 5735 5733 5731 5728 5727 5725 5724 5723 5721 5720 5719 5718 5717 5717 5716 5716 5716 5715 5715 5715
5758 5758 5759 5759 5758 5758 5757 5756 5756 5755 5754 5752 5751 5750 5748 5746 5744 5742 5740 5738 5736 5734 5732 5729 5727 5724 5722 5720 5718 5717 5716 5714 5713 5712 5710 5709 5708 5707 5707 5707 5706 5706 5706 5705
5752 5752 5752 5752 5752 5751 5750 5749 5749 5748 5747 5745 5744 5742 5741 5739 5737 5735 5733 5730 5728 5727 5725 5722 5719 5717 5715 5713 5711 5709 5707 5706 5704 5703 5701 5700 5699 5698 5698 5697 5697 5697 5697 5696
5745 5746 5746 5745 5745 5744 5744 5742 5741 5740 5739 5738 5737 5735 5733 5732 5730 5728 5726 5724 5721 5719 5717 5715 5712 5710 5708 5706 5703 5701 5699 5697 5696 5694 5693 5692 5690 5690 5689 5689 5688 5688 5688 5688
Wind_Speed
18 18 18 18 19 19 19 18 18 18 18 18 17 18 18 18 18 18 17 17 17 17 17 16 16 16 17 17 16 15 15 15 15 14 13 13 13 13 13 13 13 13 13 13
18 18 18 18 18 18 18 18 18 18 19 19 19 19 19 20 20 20 19 19 18 19 19 19 18 19 19 19 18 18 17 17 17 16 16 15 16 16 15 15 15 15 14 14
19 19 18 18 17 17 18 18 18 19 19 19 20 20 21 21 21 21 21 20 20 20 20 20 21 21 20 20 20 19 19 19 18 18 18 17 17 17 17 17 18 17 16 15
19 19 19 19 18 18 18 19 19 19 19 19 20 20 22 22 22 22 22 22 22 22 22 22 22 22 22 22 21 21 21 20 19 19 19 19 19 19 19 19 19 20 19 18
20 20 19 19 18 19 20 20 19 20 19 19 20 20 22 22 22 22 23 23 24 24 23 24 24 23 24 24 23 22 22 22 22 21 21 20 20 20 20 21 21 21 21 21
20 20 20 19 19 19 20 20 20 20 19 20 21 20 22 23 22 22 23 23 24 24 24 24 24 24 24 25 25 25 24 23 23 22 22 21 21 22 22 22 23 22 22 21
18 19 19 19 19 19 19 18 17 18 19 20 22 22 22 23 23 23 22 22 22 22 23 23 24 24 25 26 26 26 26 25 24 24 23 22 22 23 23 23 23 23 22 21
17 18 18 19 19 20 19 19 18 17 18 20 23 23 22 23 22 22 22 22 23 24 24 25 25 26 26 26 26 26 26 26 25 25 25 25 25 24 24 23 23 23 22 22
16 18 18 19 19 20 20 20 19 19 19 19 21 23 23 22 22 22 22 23 24 24 25 26 26 26 26 27 27 26 27 27 27 27 26 26 25 25 25 25 24 24 24 24
17 18 18 19 19 19 20 20 20 19 20 20 21 23 23 23 23 23 23 24 25 25 26 26 26 26 27 27 27 28 28 29 29 28 28 27 26 26 26 25 25 25 25 24
17 18 18 18 18 18 19 20 20 20 20 20 20 22 24 24 24 23 24 25 25 26 27 27 28 28 28 29 29 29 29 30 30 30 29 29 28 27 27 26 26 26 26 25
17 18 18 19 19 20 20 20 20 20 21 21 21 23 24 24 25 25 25 26 27 28 29 29 29 29 29 29 29 29 30 30 30 30 30 30 29 28 28 28 28 27 26 26
17 18 18 18 19 20 21 21 21 22 22 22 22 24 24 25 25 26 26 27 27 28 29 29 29 29 28 28 28 29 30 29 30 31 31 30 30 29 29 30 30 29 28 28
17 18 18 18 19 20 22 22 22 22 22 22 23 24 25 27 27 27 27 27 28 29 29 29 29 28 28 28 28 29 29 29 29 30 31 31 30 30 30 30 31 31 29 29
19 19 19 19 21 22 23 23 23 24 24 24 24 25 26 27 27 27 28 28 28 29 28 28 28 28 27 27 27 28 28 29 29 30 30 30 30 30 30 30 31 31 30 30
19 20 20 21 21 22 22 23 23 24 24 25 25 26 27 27 27 27 28 28 28 28 27 27 27 27 27 27 27 27 28 28 28 30 30 30 31 30 29 29 29 29 30 30
19 20 20 21 21 22 23 23 23 23 23 24 25 25 26 26 27 27 27 27 27 27 27 27 27 27 27 27 27 27 28 28 29 29 30 30 30 30 29 29 29 29 29 28
20 20 20 21 22 22 23 22 23 23 24 24 25 26 26 27 27 26 26 27 27 27 27 28 27 26 27 27 27 28 28 28 28 29 30 30 30 30 30 30 30 30 29 29
20 20 20 21 21 22 21 21 21 22 23 24 24 25 25 26 26 26 26 27 28 27 27 27 28 27 27 27 27 27 27 27 28 28 29 31 31 31 31 30 30 30 29 29
20 20 21 20 21 21 22 20 21 22 24 23 24 24 25 26 26 26 27 27 27 27 26 26 27 27 26 26 26 27 27 27 27 27 28 29 30 30 30 29 29 30 30 29
21 21 21 21 22 22 22 20 20 22 23 23 23 24 24 25 26 26 26 26 25 25 25 25 26 25 26 26 26 26 26 26 26 27 27 27 28 29 29 29 29 29 29 29
21 21 22 22 23 23 21 21 21 22 22 23 23 23 24 24 25 25 25 24 24 24 25 25 25 25 26 26 26 26 26 26 27 27 27 27 27 28 28 28 29 29 28 28
21 21 22 22 23 24 23 22 22 22 23 23 23 24 24 25 25 25 24 24 24 24 25 25 25 26 26 26 26 26 26 26 27 26 27 27 27 28 29 29 29 28 29 29
21 21 21 22 22 22 23 22 22 22 23 23 24 25 25 25 24 24 24 24 24 24 24 25 26 25 26 26 26 25 26 26 26 26 27 27 27 28 28 28 28 28 28 28
21 21 21 21 22 23 23 23 23 23 23 24 24 25 24 24 23 24 24 23 23 24 24 25 25 24 24 25 25 26 26 26 27 27 27 27 27 28 28 27 27 27 27 26
20 20 21 22 22 23 23 23 24 24 23 23 23 23 23 23 23 23 23 23 23 24 24 25 25 24 25 24 24 24 25 25 25 25 26 26 26 26 26 26 26 25 26 26
Wind_Direction
234 234 234 236 236 234 236 238 243 246 248 251 255 259 260 261 261 264 267 269 272 277 280 283 286 289 288 288 288 288 287 289 289 289 287 285 286 285 284 288 287 282 278 275
234 236 239 238 237 237 238 241 245 247 249 250 254 260 262 263 262 265 268 270 272 275 280 282 284 286 285 285 286 286 286 285 286 286 284 283 286 284 284 282 283 279 276 276
234 237 240 241 240 239 240 242 243 247 251 252 256 262 263 264 265 265 266 270 272 276 278 282 285 283 282 282 282 284 286 285 283 282 281 280 281 281 282 282 280 276 272 273
236 239 241 242 241 240 242 243 244 247 252 257 258 261 265 265 265 265 267 270 272 274 276 279 280 279 278 278 279 281 284 283 282 281 280 279 278 278 279 280 277 277 274 272
238 240 242 243 243 241 243 245 246 249 253 256 261 260 266 267 267 268 268 270 272 274 276 277 277 277 275 274 275 277 279 281 283 282 281 279 279 280 279 277 274 274 271 272
239 241 242 244 245 243 246 248 249 252 257 260 261 263 264 269 270 270 270 270 272 273 274 275 275 275 275 273 273 275 276 277 279 280 281 280 279 280 279 276 272 270 271 272
242 244 245 245 246 246 246 249 254 257 259 261 265 265 265 269 270 270 271 271 272 274 275 276 277 277 276 275 273 272 274 275 277 278 277 277 279 280 278 277 273 270 270 271
241 245 246 245 245 247 247 247 247 253 258 262 267 267 269 270 272 272 272 272 274 276 276 276 277 277 276 274 272 271 271 274 275 275 275 276 276 278 278 276 275 275 274 273
237 241 245 246 247 247 249 249 251 254 257 259 266 271 271 274 275 276 276 275 277 278 278 278 278 277 275 273 273 272 271 272 271 272 274 274 274 275 277 276 274 274 273 269
237 242 247 247 249 249 251 254 255 254 258 262 267 272 273 276 277 279 279 279 278 279 281 281 280 277 273 272 272 272 271 269 268 271 272 273 274 274 274 274 273 273 270 268
241 243 248 248 248 252 255 255 256 257 258 262 267 270 274 277 278 280 282 282 281 282 282 282 280 277 275 273 271 270 270 269 268 269 270 270 272 273 271 270 271 271 270 269
241 244 248 249 249 251 255 256 257 260 264 265 266 271 275 277 278 280 281 282 282 282 283 283 281 279 277 274 272 269 269 270 268 268 268 268 270 270 269 269 270 273 272 268
243 246 251 255 256 255 254 256 258 261 264 266 268 272 276 278 279 281 282 282 284 284 284 283 282 280 278 275 271 269 270 271 269 268 268 267 268 270 269 270 271 273 272 270
247 249 249 252 256 260 261 260 260 261 265 268 268 271 276 279 280 281 281 282 284 286 286 284 282 280 278 274 272 270 269 270 268 268 267 267 268 270 270 270 271 271 269 268
250 253 254 256 259 262 263 264 264 264 266 269 270 273 276 277 280 282 282 283 284 285 285 284 282 280 279 277 273 271 270 270 268 267 267 268 267 268 269 270 271 270 269 269
254 255 258 261 262 264 266 268 270 269 270 271 273 274 277 279 282 283 284 284 284 285 284 283 281 281 279 277 274 272 271 269 267 267 266 266 266 267 268 270 272 271 270 270
258 261 262 264 264 267 266 268 270 272 272 273 274 275 278 281 282 282 283 283 283 283 282 281 281 279 277 277 274 273 273 272 270 269 269 267 267 268 269 269 269 269 268 268
260 261 263 267 268 269 271 270 271 272 272 273 273 274 276 280 281 282 282 283 284 285 285 283 282 279 278 277 275 275 275 274 274 272 270 269 268 269 269 269 267 267 266 266
259 261 265 267 270 272 273 272 272 272 272 273 275 276 277 279 281 282 284 286 286 287 287 285 284 282 280 278 277 276 275 275 276 274 271 270 271 271 271 269 269 268 266 265
260 260 264 268 270 273 275 274 274 274 276 277 278 279 280 281 283 285 287 288 288 288 288 287 286 284 283 281 278 277 276 276 276 275 273 272 271 270 270 269 268 268 266 264
261 262 264 268 271 273 274 273 275 276 277 278 278 279 281 283 285 287 289 289 289 289 288 286 284 283 282 281 279 279 278 277 277 276 274 274 273 270 268 267 267 267 267 267
263 264 265 267 270 273 275 276 278 279 280 279 280 280 282 285 286 288 290 290 287 286 288 288 286 286 285 283 281 279 279 278 277 277 275 274 273 270 268 267 268 269 269 268
263 265 267 268 270 273 275 278 280 280 280 280 280 280 283 286 286 287 289 289 288 287 287 288 288 286 286 284 282 280 279 279 279 279 277 275 274 271 269 269 270 270 269 267
263 264 267 269 270 273 276 278 280 280 280 281 281 281 283 285 286 288 289 288 288 289 289 290 291 289 288 287 285 284 283 282 280 279 278 277 275 272 271 271 271 271 270 268
266 268 268 268 270 274 277 279 280 281 282 282 283 284 284 285 287 289 291 291 289 289 290 291 291 291 291 290 288 287 286 284 283 281 279 277 275 273 271 271 271 270 269 267
268 269 268 269 271 275 279 281 281 281 282 283 284 285 285 286 288 290 290 291 291 291 291 291 290 291 292 292 290 289 288 286 285 283 281 279 277 275 272 270 269 268 267 266